Weather observations for the past three days for
San Diego, Miramar MCAS/Mitscher Field Airport
Metric (Imperial)
Date Time (pdt) Wind (kph) Vis. (km) Weather Sky Cond. Temperature (ºC) Relative Humidity Wind Chill (°C) Heat Index (°C) Pressure Precipitation (cm)
Air Dwpt 6 hour altimeter (cm) sea level (mb) 1 hr 3 hr 6 hr
Max. Min.
04 17:55 W 20 16.09 Partly Cloudy SCT030 18.3 8.9 54% 76.15 1014.7
04 16:55 SW 17 G 35 16.09 Fair CLR 18.3 8.9 20 17.8 54% 76.17 1014.9
04 15:55 W 19 G 35 16.09 Fair CLR 18.9 8.3 50% 76.15 1014.8
04 14:55 W 17 G 33 16.09 A Few Clouds FEW031 19.4 9.4 53% 76.2 1015.3
04 13:55 W 20 G 35 16.09 Fair CLR 19.4 9.4 53% 76.23 1015.7
04 12:55 W 19 G 31 16.09 A Few Clouds FEW033 19.4 8.9 51% 76.23 1015.7
04 11:55 W 19 16.09 Partly Cloudy SCT033 18.3 8.9 54% 76.25 1015.9
04 10:55 W 17 G 30 16.09 Mostly Cloudy SCT034 BKN200 18.3 8.9 18.3 11.7 54% 76.25 1016.2
04 09:55 W 15 G 28 16.09 Mostly Cloudy BKN028 17.2 9.4 60% 76.23 1015.6
04 08:55 W 13 16.09 Mostly Cloudy BKN028 16.7 9.4 62% 76.23 1015.6
04 07:55 W 13 16.09 Mostly Cloudy BKN028 16.7 9.4 62% 76.17 1015.2
04 06:55 Calm 16.09 Mostly Cloudy SCT020 BKN050 13.9 10 78% 76.17 1015.2
04 05:55 W 7 16.09 Fair CLR 13.3 8.9 75% 76.12 1014.6
04 03:55 W 13 16.09 Mostly Cloudy BKN050 15 9.4 69% 76.12 1014.5
04 02:55 W 17 16.09 Overcast FEW043 OVC050 15 9.4 69% 76.1 1014.2
04 01:55 W 17 16.09 Overcast FEW021 SCT028 OVC050 15.6 10 70% 76.12 1014.4
04 00:55 W 15 G 28 16.09 Overcast SCT023 OVC050 15.6 10.6 72% 76.2 1015.3
03 23:55 SW 13 16.09 Overcast FEW025 FEW044 OVC055 16.1 11.1 72% 76.2 1015.4
03 22:55 W 9 16.09 Mostly Cloudy BKN050 16.1 10.6 18.9 16.1 70% 76.12 1014.5
03 21:55 SW 9 16.09 Overcast OVC050 16.1 10.6 70% 76.17 1015.0
03 20:55 W 7 16.09 Overcast FEW024 OVC050 16.1 10 67% 76.1 1014.1
03 19:55 SW 7 16.09 Overcast FEW030 SCT035 OVC050 16.7 10 65% 76.1 1013.9
03 17:55 W 19 16.09 Mostly Cloudy BKN040 17.2 8.3 56% 76.05 1013.2
03 16:55 W 19 G 31 16.09 Mostly Cloudy BKN039 18.9 9.4 20.6 18.3 54% 76 1012.6
03 15:55 W 17 G 33 16.09 Mostly Cloudy BKN039 20.6 8.3 45% 76 1012.7
03 14:55 Vrbl 11 G 28 16.09 Mostly Cloudy BKN036 20 8.9 49% 76.05 1013.2
03 13:55 W 20 G 33 16.09 Overcast BKN036 OVC046 18.9 9.4 54% 76.05 1013.5
03 12:55 W 17 G 28 16.09 Overcast FEW027 OVC041 18.9 10 56% 76.07 1013.8
03 11:55 W 19 16.09 Overcast BKN027 OVC037 18.3 10.6 61% 76.1 1014.0
03 10:55 Vrbl 7 16.09 Overcast OVC030 18.9 11.1 19.4 15 61% 76.07 1013.9
03 09:55 W 7 16.09 Overcast BKN026 OVC036 17.8 11.1 65% 76.1 1013.9
03 08:55 NW 6 16.09 Overcast OVC034 17.2 11.1 68% 76.07 1013.7
03 07:55 NW 7 16.09 Overcast OVC033 16.7 11.1 70% 76.07 1013.8
03 06:55 NW 13 16.09 Overcast OVC029 15.6 11.7 78% 76.05 1013.5
03 05:55 W 7 16.09 Overcast OVC020 15.6 11.1 75% 76 1012.5
03 04:55 W 9 16.09 Overcast OVC016 15 12.2 16.1 15 83% 75.97 1012.3
03 03:55 W 7 16.09 Overcast OVC013 15.6 12.2 80% 75.97 1012.3
03 02:55 W 6 16.09 Overcast OVC013 16.1 12.2 78% 75.97 1012.3
03 01:55 W 7 16.09 Overcast OVC014 15.6 12.2 80% 75.97 1012.5
03 00:55 Calm 16.09 Overcast OVC015 15.6 12.8 84% 76.05 1013.2
02 23:55 S 6 16.09 Overcast OVC010 15.6 12.8 84% 76.05 1013.5
02 22:55 Calm 16.09 Overcast OVC009 15.6 13.3 19.4 13.9 86% 76.05 1013.2
02 21:55 W 7 16.09 Mostly Cloudy BKN010 15 12.8 87% 76 1012.7
02 20:55 W 9 16.09 Mostly Cloudy BKN010 15 12.8 87% 75.92 1011.6
02 19:55 W 11 16.09 Mostly Cloudy BKN011 15.6 12.8 84% 75.87 1011.2
02 18:55 W 15 16.09 Partly Cloudy SCT013 16.7 13.3 80% 75.87 1011.0
02 17:55 W 13 16.09 Fair CLR 17.8 13.3 75% 75.84 1010.8
02 15:55 W 15 16.09 A Few Clouds FEW016 20 13.3 65% 75.87 1011.0
02 14:55 W 19 16.09 Fair CLR 20 13.9 68% 75.95 1011.9
02 13:55 W 19 G 35 16.09 Fair CLR 21.1 13.9 64% 75.97 1012.2
02 12:55 W 17 11.27 Overcast OVC020 20 14.4 70% 76 1012.7
02 11:55 W 15 16.09 Overcast OVC015 19.4 14.4 73% 76.05 1013.3
02 10:55 N 7 16.09 Overcast OVC013 17.8 13.9 18.3 15.6 78% 76.1 1014.0
02 09:55 W 6 16.09 Overcast OVC012 16.7 13.3 80% 76.12 1014.6
02 08:55 Calm 16.09 Overcast OVC010 16.7 13.3 80% 76.12 1014.5
02 07:55 NW 7 16.09 NULL NULL 16.1 13.3 84% 76.12 1014.4
02 06:55 Calm 12.87 NULL NULL 16.1 13.3 84% 76.07 1013.7
02 05:55 Calm 16.09 Overcast OVC010 16.1 13.3 84% 76.05 1013.4
02 04:55 Calm 14.48 Overcast OVC010 16.1 13.9 16.1 14.4 87% 76.02 1013.1
02 03:55 Calm 16.09 Overcast OVC011 16.1 13.3 84% 76.02 1012.9
02 02:55 S 7 16.09 Overcast OVC011 16.1 13.3 84% 76 1012.8
02 01:55 Calm 16.09 Overcast OVC012 15.6 13.3 86% 76 1012.8
02 00:55 Calm 16.09 Overcast OVC012 15.6 12.8 84% 76.07 1013.5
01 23:55 Calm 16.09 Overcast OVC013 16.1 13.3 84% 76.07 1013.6
01 22:55 Calm 16.09 Overcast OVC013 14.4 12.8 20.6 13.3 90% 76.07 1013.6
01 21:55 Calm 16.09 Mostly Cloudy BKN013 14.4 12.2 87% 76.07 1013.7
01 20:55 W 7 16.09 Partly Cloudy SCT013 15 12.8 87% 76.05 1013.3
01 19:55 W 11 16.09 Fair CLR 16.1 12.8 81% 76 1012.9
01 18:55 SW 13 16.09 Fair CLR 16.7 12.8 78% 75.97 1012.4
Date Time (pdt) Wind (kph) Vis. (km) Weather Sky Cond. Air Dwpt Max. Min. Relative Humidity Wind Chill (°C) Heat Index (°C) altimeter (cm) sea level (mb) 1 hr 3 hr 6 hr
6 hour
Temperature (ºC) Pressure Precipitation (cm)